User: anonymous   Login
Location: St Andrew
(49.4460°N, 2.5750°W)
Time: 22:17:26
(UTC+01:00)
Language:

Iridium 66 - Orbit

View from above orbital plane
View from above orbital plane
View from above satellite
View from above satellite

Ground track
Ground track

The orbit data is extracted from the following two-line orbital elements,

1 25289U 98021E   14296.43200500  .00000420  00000-0  14290-3 0  9076
2 25289 086.3941 268.2653 0002149 101.6758 011.0447 14.34221927866300
Epoch (UTC): 23 October 2014 10:22:05
Eccentricity: 0.0002149
inclination: 86.3941°
perigee height: 776 km
apogee height: 779 km
right ascension of ascending node: 268.2653°
argument of perigee: 101.6758°
revolutions per day: 14.34221927
mean anomaly at epoch: 11.0447°
orbit number at epoch: 86630

The dashed part of the orbit path shows where the satellite is in the earth's shadow,  

DLR